Time,TemperatureF,DewpointF,PressureIn,WindDirection,WindDirectionDegrees,WindSpeedMPH,WindSpeedGustMPH,Humidity,HourlyPrecipIn,Conditions,Clouds,dailyrainin,SoftwareType,DateUTC
2013-01-07 00:02:00,31.0,20.0,30.22,SSE,162,4.0,5.0,63,0.00,,,0.00,,2013-01-07 06:02:00,
2013-01-07 00:12:00,31.0,20.0,30.21,SSE,153,4.0,4.0,63,0.00,,,0.00,,2013-01-07 06:12:00,
2013-01-07 00:22:00,31.0,20.0,30.21,SSE,153,4.0,4.0,63,0.00,,,0.00,,2013-01-07 06:22:00,
2013-01-07 00:32:00,31.0,20.0,30.21,SSE,153,4.0,4.0,63,0.00,,,0.00,,2013-01-07 06:32:00,
2013-01-07 00:42:00,31.0,20.0,30.21,SSE,153,4.0,4.0,63,0.00,,,0.00,,2013-01-07 06:42:00,
2013-01-07 00:52:00,31.0,20.0,30.21,SSE,153,4.0,4.0,63,0.00,,,0.00,,2013-01-07 06:52:00,
2013-01-07 01:22:00,31.0,20.0,30.21,SSE,151,5.0,7.0,62,0.00,,,0.00,,2013-01-07 07:22:00,
2013-01-07 01:33:00,31.0,20.0,30.21,SSE,151,5.0,7.0,62,0.00,,,0.00,,2013-01-07 07:33:00,
2013-01-07 01:42:00,31.0,20.0,30.21,SSE,151,5.0,7.0,62,0.00,,,0.00,,2013-01-07 07:42:00,
2013-01-07 01:52:00,31.0,20.0,30.21,SSE,151,5.0,7.0,62,0.00,,,0.00,,2013-01-07 07:52:00,
2013-01-07 02:22:00,32.0,20.0,30.20,SSE,152,2.0,5.0,61,0.00,,,0.00,,2013-01-07 08:22:00,
2013-01-07 02:32:00,32.0,20.0,30.20,SSE,152,2.0,5.0,61,0.00,,,0.00,,2013-01-07 08:32:00,
2013-01-07 02:42:00,32.0,20.0,30.20,SSE,152,2.0,5.0,61,0.00,,,0.00,,2013-01-07 08:42:00,
2013-01-07 02:52:00,32.0,20.0,30.20,SSE,157,3.0,6.0,61,0.00,,,0.00,,2013-01-07 08:52:00,
2013-01-07 03:02:00,32.0,20.0,30.20,SSE,157,3.0,6.0,61,0.00,,,0.00,,2013-01-07 09:02:00,
2013-01-07 03:12:00,32.0,20.0,30.20,SSE,157,3.0,6.0,61,0.00,,,0.00,,2013-01-07 09:12:00,
2013-01-07 03:22:00,33.0,21.0,30.20,SE,139,4.0,4.0,60,0.00,,,0.00,,2013-01-07 09:22:00,
2013-01-07 03:32:00,33.0,21.0,30.20,SE,139,4.0,4.0,60,0.00,,,0.00,,2013-01-07 09:32:00,
2013-01-07 03:42:00,33.0,21.0,30.20,SE,139,4.0,4.0,60,0.00,,,0.00,,2013-01-07 09:42:00,
2013-01-07 03:52:00,33.0,21.0,30.20,SE,139,4.0,4.0,60,0.00,,,0.00,,2013-01-07 09:52:00,
2013-01-07 04:12:00,32.0,19.0,30.18,SE,125,3.0,5.0,59,0.00,,,0.00,,2013-01-07 10:12:00,
2013-01-07 04:22:00,32.0,19.0,30.18,SE,125,3.0,5.0,59,0.00,,,0.00,,2013-01-07 10:22:00,
2013-01-07 04:32:00,32.0,19.0,30.18,SE,125,3.0,5.0,59,0.00,,,0.00,,2013-01-07 10:32:00,
2013-01-07 04:42:00,32.0,19.0,30.18,SE,125,3.0,5.0,59,0.00,,,0.00,,2013-01-07 10:42:00,
2013-01-07 04:52:00,32.0,20.0,30.17,SSE,155,3.0,3.0,60,0.00,,,0.00,,2013-01-07 10:52:00,
2013-01-07 05:02:00,32.0,20.0,30.17,SSE,155,3.0,3.0,60,0.00,,,0.00,,2013-01-07 11:02:00,
2013-01-07 05:12:00,32.0,20.0,30.17,SSE,155,3.0,3.0,60,0.00,,,0.00,,2013-01-07 11:12:00,
2013-01-07 05:22:00,31.0,19.0,30.16,South,169,4.0,4.0,61,0.00,,,0.00,,2013-01-07 11:22:00,
2013-01-07 05:33:00,31.0,19.0,30.16,South,169,4.0,4.0,61,0.00,,,0.00,,2013-01-07 11:33:00,
2013-01-07 05:43:00,31.0,19.0,30.16,South,169,4.0,4.0,61,0.00,,,0.00,,2013-01-07 11:43:00,
2013-01-07 05:52:00,32.0,20.0,30.16,SSW,199,3.0,6.0,61,0.00,,,0.00,,2013-01-07 11:52:00,
2013-01-07 06:03:00,32.0,20.0,30.16,SSW,199,3.0,6.0,61,0.00,,,0.00,,2013-01-07 12:03:00,
2013-01-07 06:12:00,33.0,21.0,30.16,South,191,4.0,5.0,60,0.00,,,0.00,,2013-01-07 12:12:00,
2013-01-07 06:22:00,33.0,21.0,30.16,South,191,4.0,5.0,60,0.00,,,0.00,,2013-01-07 12:22:00,
2013-01-07 06:33:00,33.0,21.0,30.16,South,191,4.0,5.0,60,0.00,,,0.00,,2013-01-07 12:33:00,
2013-01-07 06:43:00,33.0,21.0,30.16,South,191,4.0,5.0,60,0.00,,,0.00,,2013-01-07 12:43:00,
2013-01-07 06:52:00,33.0,21.0,30.16,South,191,4.0,5.0,60,0.00,,,0.00,,2013-01-07 12:52:00,
2013-01-07 07:23:00,33.0,20.0,30.16,SSW,203,6.0,7.0,59,0.00,,,0.00,,2013-01-07 13:23:00,
2013-01-07 07:33:00,33.0,20.0,30.16,SSW,203,6.0,7.0,59,0.00,,,0.00,,2013-01-07 13:33:00,
2013-01-07 07:42:00,33.0,20.0,30.16,SSW,203,6.0,7.0,59,0.00,,,0.00,,2013-01-07 13:42:00,
2013-01-07 07:52:00,33.0,20.0,30.16,SSW,203,6.0,7.0,59,0.00,,,0.00,,2013-01-07 13:52:00,
2013-01-07 08:12:00,31.0,20.0,30.15,South,173,4.0,4.0,62,0.00,,,0.00,,2013-01-07 14:12:00,
2013-01-07 08:22:00,31.0,20.0,30.15,South,173,4.0,4.0,62,0.00,,,0.00,,2013-01-07 14:22:00,
2013-01-07 08:33:00,31.0,20.0,30.15,South,173,4.0,4.0,62,0.00,,,0.00,,2013-01-07 14:33:00,
2013-01-07 08:42:00,31.0,20.0,30.15,South,173,4.0,4.0,62,0.00,,,0.00,,2013-01-07 14:42:00,
2013-01-07 08:53:00,32.0,20.0,30.15,SSW,196,5.0,5.0,61,0.00,,,0.00,,2013-01-07 14:53:00,
2013-01-07 09:03:00,32.0,20.0,30.15,SSW,196,5.0,5.0,61,0.00,,,0.00,,2013-01-07 15:03:00,
2013-01-07 09:12:00,32.0,20.0,30.15,SSW,196,5.0,5.0,61,0.00,,,0.00,,2013-01-07 15:12:00,
2013-01-07 09:22:00,34.0,21.0,30.16,SW,221,5.0,7.0,58,0.00,,,0.00,,2013-01-07 15:22:00,
2013-01-07 09:33:00,34.0,21.0,30.16,SW,221,5.0,7.0,58,0.00,,,0.00,,2013-01-07 15:33:00,
2013-01-07 09:43:00,34.0,21.0,30.16,SW,221,5.0,7.0,58,0.00,,,0.00,,2013-01-07 15:43:00,
2013-01-07 09:53:00,36.0,22.0,30.16,SSE,166,8.0,8.0,56,0.00,,,0.00,,2013-01-07 15:53:00,
2013-01-07 10:02:00,36.0,22.0,30.16,SSE,166,8.0,8.0,56,0.00,,,0.00,,2013-01-07 16:02:00,
2013-01-07 10:12:00,36.0,22.0,30.16,SSE,166,8.0,8.0,56,0.00,,,0.00,,2013-01-07 16:12:00,
2013-01-07 10:22:00,38.0,22.0,30.15,SSW,202,8.0,8.0,51,0.00,,,0.00,,2013-01-07 16:22:00,
2013-01-07 10:33:00,38.0,22.0,30.15,SSW,202,8.0,8.0,51,0.00,,,0.00,,2013-01-07 16:33:00,
2013-01-07 10:43:00,38.0,22.0,30.15,SSW,202,8.0,8.0,51,0.00,,,0.00,,2013-01-07 16:43:00,
2013-01-07 10:53:00,41.0,22.0,30.16,SSW,194,8.0,17.0,47,0.01,,,0.00,,2013-01-07 16:53:00,
2013-01-07 11:03:00,41.0,22.0,30.16,SSW,194,8.0,17.0,47,0.01,,,0.00,,2013-01-07 17:03:00,
2013-01-07 11:12:00,41.0,22.0,30.16,SSW,194,8.0,17.0,47,0.01,,,0.00,,2013-01-07 17:12:00,
2013-01-07 11:23:00,41.0,23.0,30.15,South,189,8.0,9.0,48,0.00,,,0.00,,2013-01-07 17:23:00,
2013-01-07 11:33:00,41.0,23.0,30.15,South,189,8.0,9.0,48,0.00,,,0.00,,2013-01-07 17:33:00,
2013-01-07 11:42:00,41.0,23.0,30.15,South,189,8.0,9.0,48,0.00,,,0.00,,2013-01-07 17:42:00,
2013-01-07 11:53:00,42.0,23.0,30.13,South,174,9.0,9.0,47,0.00,,,0.00,,2013-01-07 17:53:00,
2013-01-07 12:03:00,42.0,23.0,30.13,South,174,9.0,9.0,47,0.00,,,0.00,,2013-01-07 18:03:00,
2013-01-07 12:12:00,42.0,23.0,30.13,South,174,9.0,9.0,47,0.00,,,0.00,,2013-01-07 18:12:00,
2013-01-07 12:23:00,42.0,23.0,30.13,South,174,9.0,9.0,47,0.00,,,0.00,,2013-01-07 18:23:00,
2013-01-07 12:43:00,46.0,25.0,30.08,SSW,195,8.0,8.0,43,0.00,,,0.00,,2013-01-07 18:43:00,
2013-01-07 12:53:00,46.0,25.0,30.08,SSW,195,8.0,8.0,43,0.00,,,0.00,,2013-01-07 18:53:00,
2013-01-07 13:03:00,46.0,25.0,30.08,SSW,195,8.0,8.0,43,0.00,,,0.00,,2013-01-07 19:03:00,
2013-01-07 13:12:00,46.0,25.0,30.08,SSW,195,8.0,8.0,43,0.00,,,0.00,,2013-01-07 19:12:00,
2013-01-07 13:22:00,47.0,25.0,30.06,SSE,163,9.0,14.0,41,0.00,,,0.00,,2013-01-07 19:22:00,
2013-01-07 13:33:00,47.0,25.0,30.06,SSE,163,9.0,14.0,41,0.00,,,0.00,,2013-01-07 19:33:00,
2013-01-07 13:42:00,47.0,25.0,30.06,SSE,163,9.0,14.0,41,0.00,,,0.00,,2013-01-07 19:42:00,
2013-01-07 13:52:00,48.0,24.0,30.05,South,172,3.0,8.0,39,0.00,,,0.00,,2013-01-07 19:52:00,
2013-01-07 14:03:00,48.0,24.0,30.05,South,172,3.0,8.0,39,0.00,,,0.00,,2013-01-07 20:03:00,
2013-01-07 14:12:00,48.0,24.0,30.05,South,172,3.0,8.0,39,0.00,,,0.00,,2013-01-07 20:12:00,
2013-01-07 14:23:00,47.0,24.0,30.05,SSW,204,5.0,7.0,40,0.00,,,0.00,,2013-01-07 20:23:00,
2013-01-07 14:33:00,47.0,24.0,30.05,SSW,204,5.0,7.0,40,0.00,,,0.00,,2013-01-07 20:33:00,
2013-01-07 14:42:00,47.0,24.0,30.05,SSW,204,5.0,7.0,40,0.00,,,0.00,,2013-01-07 20:42:00,
2013-01-07 14:52:00,49.0,24.0,30.04,SSW,207,5.0,6.0,37,0.00,,,0.00,,2013-01-07 20:52:00,
2013-01-07 15:03:00,49.0,24.0,30.04,SSW,207,5.0,6.0,37,0.00,,,0.00,,2013-01-07 21:03:00,
2013-01-07 15:12:00,49.0,24.0,30.04,SSW,207,5.0,6.0,37,0.00,,,0.00,,2013-01-07 21:12:00,
2013-01-07 15:22:00,47.0,23.0,30.04,SSW,213,5.0,7.0,39,0.00,,,0.00,,2013-01-07 21:22:00,
2013-01-07 15:33:00,47.0,23.0,30.04,SSW,213,5.0,7.0,39,0.00,,,0.00,,2013-01-07 21:33:00,
2013-01-07 15:43:00,47.0,23.0,30.04,SSW,213,5.0,7.0,39,0.00,,,0.00,,2013-01-07 21:43:00,
2013-01-07 15:52:00,46.0,24.0,30.05,SW,224,1.0,5.0,41,0.00,,,0.00,,2013-01-07 21:52:00,
2013-01-07 16:03:00,46.0,24.0,30.05,SW,224,1.0,5.0,41,0.00,,,0.00,,2013-01-07 22:03:00,
2013-01-07 16:12:00,46.0,24.0,30.05,SW,224,1.0,5.0,41,0.00,,,0.00,,2013-01-07 22:12:00,
2013-01-07 16:22:00,46.0,24.0,30.03,SW,222,2.0,6.0,42,0.00,,,0.00,,2013-01-07 22:22:00,
2013-01-07 16:33:00,46.0,24.0,30.03,SW,222,2.0,6.0,42,0.00,,,0.00,,2013-01-07 22:33:00,
2013-01-07 16:42:00,46.0,24.0,30.03,SW,222,2.0,6.0,42,0.00,,,0.00,,2013-01-07 22:42:00,
2013-01-07 16:52:00,46.0,25.0,30.04,SSW,207,4.0,4.0,44,0.00,,,0.00,,2013-01-07 22:52:00,
2013-01-07 17:02:00,46.0,25.0,30.04,SSW,207,4.0,4.0,44,0.00,,,0.00,,2013-01-07 23:02:00,
2013-01-07 17:12:00,45.0,25.0,30.02,SW,214,6.0,9.0,46,0.00,,,0.00,,2013-01-07 23:12:00,
2013-01-07 17:22:00,45.0,25.0,30.02,SW,214,6.0,9.0,46,0.00,,,0.00,,2013-01-07 23:22:00,
2013-01-07 17:33:00,45.0,25.0,30.02,SW,214,6.0,9.0,46,0.00,,,0.00,,2013-01-07 23:33:00,
2013-01-07 17:42:00,45.0,25.0,30.02,SW,214,6.0,9.0,46,0.00,,,0.00,,2013-01-07 23:42:00,
2013-01-07 17:52:00,43.0,25.0,30.01,SSE,159,3.0,5.0,48,0.00,,,0.00,,2013-01-07 23:52:00,
2013-01-07 18:02:00,43.0,25.0,30.01,SSE,159,3.0,5.0,48,0.00,,,0.00,,2013-01-08 00:02:00,
2013-01-07 18:12:00,43.0,25.0,30.01,SSE,159,3.0,5.0,48,0.00,,,0.00,,2013-01-08 00:12:00,
2013-01-07 18:22:00,43.0,25.0,30.02,SE,145,3.0,6.0,49,0.00,,,0.00,,2013-01-08 00:22:00,
2013-01-07 18:33:00,43.0,25.0,30.02,SE,145,3.0,6.0,49,0.00,,,0.00,,2013-01-08 00:33:00,
2013-01-07 18:42:00,43.0,25.0,30.02,SE,145,3.0,6.0,49,0.00,,,0.00,,2013-01-08 00:42:00,
2013-01-07 18:52:00,42.0,25.0,30.01,SSE,164,4.0,6.0,50,0.00,,,0.00,,2013-01-08 00:52:00,
2013-01-07 19:03:00,42.0,25.0,30.01,SSE,164,4.0,6.0,50,0.00,,,0.00,,2013-01-08 01:03:00,
2013-01-07 19:12:00,42.0,25.0,30.01,SSE,164,4.0,6.0,50,0.00,,,0.00,,2013-01-08 01:12:00,
2013-01-07 19:22:00,42.0,25.0,30.01,SSE,165,5.0,6.0,51,0.00,,,0.00,,2013-01-08 01:22:00,
2013-01-07 19:33:00,42.0,25.0,30.01,SSE,165,5.0,6.0,51,0.00,,,0.00,,2013-01-08 01:33:00,
2013-01-07 19:42:00,42.0,25.0,30.01,SSE,165,5.0,6.0,51,0.00,,,0.00,,2013-01-08 01:42:00,
2013-01-07 19:52:00,41.0,25.0,30.01,SSW,203,5.0,5.0,52,0.00,,,0.00,,2013-01-08 01:52:00,
2013-01-07 20:02:00,41.0,25.0,30.01,SSW,203,5.0,5.0,52,0.00,,,0.00,,2013-01-08 02:02:00,
2013-01-07 20:12:00,41.0,25.0,30.01,SSW,203,5.0,5.0,52,0.00,,,0.00,,2013-01-08 02:12:00,
2013-01-07 20:22:00,40.0,24.0,30.00,South,183,3.0,4.0,53,0.00,,,0.00,,2013-01-08 02:22:00,
2013-01-07 20:33:00,40.0,24.0,30.00,South,183,3.0,4.0,53,0.00,,,0.00,,2013-01-08 02:33:00,
2013-01-07 20:42:00,40.0,24.0,30.00,South,183,3.0,4.0,53,0.00,,,0.00,,2013-01-08 02:42:00,
2013-01-07 20:53:00,40.0,25.0,30.00,SSE,149,5.0,5.0,55,0.00,,,0.00,,2013-01-08 02:53:00,
2013-01-07 21:03:00,40.0,25.0,30.00,SSE,149,5.0,5.0,55,0.00,,,0.00,,2013-01-08 03:03:00,
2013-01-07 21:12:00,40.0,25.0,30.00,SSE,149,5.0,5.0,55,0.00,,,0.00,,2013-01-08 03:12:00,
2013-01-07 21:22:00,40.0,25.0,30.00,South,178,5.0,5.0,55,0.00,,,0.00,,2013-01-08 03:22:00,
2013-01-07 21:32:00,40.0,25.0,30.00,South,178,5.0,5.0,55,0.00,,,0.00,,2013-01-08 03:32:00,
2013-01-07 21:43:00,40.0,25.0,30.00,South,178,5.0,5.0,55,0.00,,,0.00,,2013-01-08 03:43:00,
2013-01-07 21:52:00,40.0,26.0,30.01,South,173,3.0,6.0,56,0.00,,,0.00,,2013-01-08 03:52:00,
2013-01-07 22:02:00,40.0,26.0,30.01,South,173,3.0,6.0,56,0.00,,,0.00,,2013-01-08 04:02:00,
2013-01-07 22:12:00,40.0,26.0,30.01,South,173,3.0,6.0,56,0.00,,,0.00,,2013-01-08 04:12:00,
2013-01-07 22:22:00,40.0,26.0,30.01,SSE,164,5.0,8.0,57,0.00,,,0.00,,2013-01-08 04:22:00,
2013-01-07 22:32:00,40.0,26.0,30.01,SSE,164,5.0,8.0,57,0.00,,,0.00,,2013-01-08 04:32:00,
2013-01-07 22:42:00,40.0,26.0,30.01,SSE,164,5.0,8.0,57,0.00,,,0.00,,2013-01-08 04:42:00,
2013-01-07 22:52:00,40.0,26.0,30.00,South,177,2.0,3.0,58,0.00,,,0.00,,2013-01-08 04:52:00,
2013-01-07 23:03:00,40.0,26.0,30.00,South,177,2.0,3.0,58,0.00,,,0.00,,2013-01-08 05:03:00,
2013-01-07 23:12:00,40.0,26.0,30.00,South,177,2.0,3.0,58,0.00,,,0.00,,2013-01-08 05:12:00,
2013-01-07 23:22:00,40.0,27.0,30.00,SSW,213,4.0,5.0,60,0.00,,,0.00,,2013-01-08 05:22:00,
2013-01-07 23:33:00,40.0,27.0,30.00,SSW,213,4.0,5.0,60,0.00,,,0.00,,2013-01-08 05:33:00,
2013-01-07 23:42:00,40.0,27.0,30.00,SSW,213,4.0,5.0,60,0.00,,,0.00,,2013-01-08 05:42:00,
2013-01-07 23:53:00,39.0,27.0,30.00,SSE,163,3.0,4.0,61,0.00,,,0.00,,2013-01-08 05:53:00,